This is the latest recevied weather packets stored in our database for station/object OE3MNS-12. If no packets are shown the sender has not sent any weather packets the latest 10 day(s).
| Time | Temp. | Humidity | Pressure | Rain* | Wind** | Luminosity | Snow |
|---|---|---|---|---|---|---|---|
| 1778337017 | 21.67° C | 37% | 1018 hPa | 1.02 mm | - | 367 W/m² | - |
| 1778336717 | 21.67° C | 38% | 1018 hPa | 1.02 mm | - | 476 W/m² | - |
| 1778336119 | 21.11° C | 40% | 1018 hPa | 1.02 mm | - | 404 W/m² | - |
| 1778335521 | 20.56° C | 40% | 1018.1 hPa | 1.02 mm | - | 260 W/m² | - |
| 1778335217 | 20.56° C | 40% | 1018 hPa | 1.02 mm | - | 191 W/m² | - |
| 1778334619 | 20.56° C | 40% | 1018.2 hPa | 1.02 mm | - | 181 W/m² | - |
| 1778334021 | 20.56° C | 40% | 1018.3 hPa | 1.02 mm | - | 192 W/m² | - |
| 1778333716 | 20.56° C | 40% | 1018.5 hPa | 1.02 mm | - | 205 W/m² | - |
| 1778333118 | 21.11° C | 39% | 1018.5 hPa | 1.02 mm | - | 219 W/m² | - |
| 1778332520 | 22.22° C | 38% | 1018.4 hPa | 1.02 mm | - | 272 W/m² | - |
| 1778331917 | 21.11° C | 39% | 1018.4 hPa | 1.02 mm | - | 612 W/m² | - |
| 1778331319 | 21.11° C | 39% | 1018.6 hPa | 1.02 mm | - | 341 W/m² | - |
| 1778330721 | 21.67° C | 39% | 1018.5 hPa | 1.02 mm | - | 721 W/m² | - |
| 1778330417 | 21.67° C | 41% | 1018.5 hPa | 1.02 mm | - | 729 W/m² | - |
| 1778329819 | 20.56° C | 43% | 1018.6 hPa | 1.02 mm | - | 544 W/m² | - |
| 1778329221 | 21.67° C | 41% | 1018.7 hPa | 1.02 mm | - | 492 W/m² | - |
| 1778328916 | 21.67° C | 40% | 1018.7 hPa | 1.02 mm | - | 557 W/m² | - |
| 1778328319 | 21.67° C | 41% | 1018.7 hPa | 1.02 mm | - | 767 W/m² | - |
| 1778327720 | 21.11° C | 42% | 1018.7 hPa | 1.02 mm | - | 656 W/m² | - |
| 1778327120 | 20.56° C | 42% | 1018.9 hPa | 1.02 mm | - | 749 W/m² | - |
| 1778326517 | 20.56° C | 43% | 1018.9 hPa | 1.02 mm | - | 732 W/m² | - |
| 1778325919 | 20.56° C | 43% | 1019 hPa | 1.02 mm | - | 731 W/m² | - |
| 1778325321 | 20° C | 44% | 1019.3 hPa | 1.02 mm | - | 730 W/m² | - |
| 1778325017 | 19.44° C | 45% | 1019.3 hPa | 1.02 mm | - | 734 W/m² | - |
| 1778324420 | 19.44° C | 45% | 1019.5 hPa | 1.02 mm | - | 727 W/m² | - |
* Rain latest hour (hover to see other rain measurements)
** Current wind speed in m/s (hover to see current wind gust speed)